[Iaude] MPEC C83: 2024 CN1 [a=1.72,e=0.28,i=36.6,H=21.9]

mpec at cfa.harvard.edu mpec at cfa.harvard.edu
Thu Feb 8 08:58:14 EST 2024


M.P.E.C. 2024-C83                              Issued 2024 February 8, 13:56 UT

     The Minor Planet Electronic Circulars contain information on unusual
         minor planets, routine data on comets and natural satellites,
         and occasional editorial announcements.  They are published
    on behalf of Division F of the International Astronomical Union by the
          Minor Planet Center, Smithsonian Astrophysical Observatory,
                          Cambridge, MA 02138, U.S.A.
			  
             Prepared using the Tamkin Foundation Computer Network

                              MPC at CFA.HARVARD.EDU
            URL https://www.minorplanetcenter.net/    ISSN 1523-6714

                                    2024 CN1                                    


Observations:
     K24C01N*1C2024 02 05.24708409 27 44.150+00 56 08.48         21.13GVEC083G96
     K24C01N 1C2024 02 05.25270409 27 43.736+00 56 37.79         21.15GVEC083G96
     K24C01N 1C2024 02 05.25834809 27 43.369+00 57 07.49         20.19GVEC083G96
     K24C01N KC2024 02 05.35530309 27 36.400+01 05 27.30               VEC083I52
     K24C01N KC2024 02 05.35801109 27 36.240+01 05 43.00               VEC083I52
     K24C01N KC2024 02 05.36072509 27 36.080+01 05 57.00         21.28GVEC083I52
     K24C01N KC2024 02 05.36344109 27 35.880+01 06 10.60         21.10GVEC083I52
     K24C01N  C2024 02 05.48144109 27 27.660+01 16 20.71         21.5 GVEC083H01
     K24C01N  C2024 02 05.48507809 27 27.416+01 16 39.44         21.1 GVEC083H01
     K24C01N  C2024 02 05.50213109 27 26.262+01 18 07.76         21.3 GVEC083H01
     K24C01N  C2024 02 05.50508909 27 26.064+01 18 23.08         21.6 GVEC083H01
     K24C01N 2C2024 02 07.91186109 24 54.222+04 46 07.66         21.4 GVEC083J04
     K24C01N  C2024 02 08.11627609 24 40.83 +05 04 03.4                WEC083X09
     K24C01N  C2024 02 08.12790609 24 39.97 +05 05 04.4                WEC083X09

Observer details:
G96 Mt. Lemmon Survey.  Observers V. F. Carvajal, D. Rankin.  Measurers T.
    Beuden, V. F. Carvajal, D. Fay, J. B. Fazekas, D. C. Fuls, A. R. Gibbs, A.
    D. Grauer, H. Groeller, J. K. Hogan, R. A. Kowalski, S. M. Larson, G. J.
    Leonard, D. Rankin, R. L. Seaman, F. C. Shelly, K. W. Wierzchos.  1.5-m
    reflector + 10K CCD.
H01 Magdalena Ridge Observatory, Socorro.  Observers W. H. Ryan, E. V. Ryan.
    Measurer W. H. Ryan.  2.4-m f/8.9 Ritchey-Chretien + CCD.
I52 Steward Observatory, Mt. Lemmon Station.  Observer H. Groeller.  Measurers
    E. C. Beshore, D. Fay, J. B. Fazekas, D. C. Fuls, A. R. Gibbs, A. D.
    Grauer, H. Groeller, J. K. Hogan, R. A. Kowalski, S. M. Larson, G. J.
    Leonard, D. Rankin, R. L. Seaman, F. C. Shelly, K. W. Wierzchos.  1.0-m
    prime focus + CCD.
J04 ESA Optical Ground Station, Tenerife.  Observers P. Ruiz, M. Micheli, F.
    Ocana, L. Conversi.  Measurers M. Micheli, R. Kresken, F. Ocana.
    1.0-m f/4.4 reflector + CCD.
X09 Deep Random Survey, Rio Hurtado.  Observers A. Schnabel, D. Ruhela.
    Measurer S. Deen.  0.43-m reflector + CMOS.

Orbital elements:
2024 CN1                                                 Earth MOID = 0.4063 AU
Epoch 2023 Sept. 13.0 TT = JDT 2460200.5                MPC                     
M 332.01666              (2000.0)            P               Q                  
n   0.43742118     Peri.  292.80930     +0.13013142     -0.92557774             
a   1.7187110      Node   143.39355     +0.97576912     +0.18315983             
e   0.2791846      Incl.   36.59401     -0.17589894     +0.33129793             
P   2.25           H   21.92          G   0.15           U   9                  
Residuals in seconds of arc
240205 G96  0.1+  0.4-    240205 I52  0.2-  0.3+    240205 H01  0.1-  0.0
240205 G96  0.2-  0.1-    240205 I52  0.3-  0.2-    240207 J04  0.0   0.0
240205 G96  0.3+  0.4+    240205 H01  0.1+  0.0     240208 X09  0.2+  0.9-
240205 I52  1.2-  1.4-    240205 H01  0.1+  0.1-    240208 X09  0.4-  0.0
240205 I52  0.7-  0.3+    240205 H01  0.1-  0.0

Ephemeris:
2024 CN1                 a,e,i = 1.72, 0.28, 37                  q = 1.2389
Date    TT    R. A. (2000) Decl.     Delta      r    Elong.  Phase     V
2024 01 09    09 46 08.1 -28 47 12   0.5253  1.3124   117.6    41.6    22.7
...
2024 01 24    09 39 20.9 -15 20 49   0.4423  1.3544   140.3    27.7    22.0
...
2024 02 01    09 32 07.8 -05 04 38   0.4205  1.3794   155.7    17.1    21.6
...
2024 02 07    09 25 51.7 +03 27 34   0.4198  1.3992   167.7     8.6    21.4
2024 02 08    09 24 47.7 +04 53 48   0.4211  1.4025   169.6     7.3    21.3
2024 02 09    09 23 43.8 +06 19 41   0.4228  1.4059   171.3     6.1    21.3
...
2024 02 15    09 17 34.1 +14 36 20   0.4422  1.4266   171.8     5.7    21.4
...
2024 02 23    09 10 46.2 +24 05 24   0.4896  1.4551   158.1    14.7    22.0
...
2024 03 09    09 05 29.6 +35 50 31   0.6279  1.5105   136.3    27.0    23.0

A. U. Tomatic                (C) Copyright 2024 MPC           M.P.E.C. 2024-C83





More information about the Iaude mailing list